Weather History for Gjoa Haven, NU

Change the Weather History Date:

Sunday, April 27, 2014

  Actual Average Record
Temperature  
Mean Temperature 0 °F -  
Max Temperature 17 °F 9 °F 28 °F (1998)
Min Temperature -16 °F -1 °F -16 °F (2014)
Degree Days  
Heating Degree Days 64    
Moisture  
Dew Point 3 °F    
Average Humidity 89    
Maximum Humidity 100    
Minimum Humidity 77    
Precipitation  
Precipitation 0.00 in - - ()
Sea Level Pressure  
Sea Level Pressure 30.17 in    
Wind  
Wind Speed 13 mph ()    
Max Wind Speed 23 mph    
Max Gust Speed 25 mph    
Visibility 6.2 miles    
Events Snow    
Averages and records for this station are not official NWS values.
T = Trace of Precipitation, MM = Missing Value Source: Averaged Metar Reports

Daily Weather History Graph

Daily Weather History Graph

Search for Another Location

Airport:

Trip Planner

Search our weather history database for the weather conditions in past years. The results will help you decide how hot, cold, wet, or windy it might be!

Date:

Astronomy

Apr. 27, 2014 Rise Set
Actual Time 4:32 AM CDT 10:13 PM CDT
Civil Twilight 2:50 AM CDT 12:00 AM CDT
Nautical Twilight Sun does not rise Sun does not rise
Astronomical Twilight Sun does not rise Sun does not rise
Moon 4:42 AM CDT (4/27) 7:58 PM CDT (4/27)
Length of Visible Light 21h 10m
Length of Day
17h 41m
Waning Crescent, 3% of the Moon is Illuminated
Apr 27
Waning Crescent
Apr 29
New
May 6
First Quarter
May 14
Full
May 21
Last Quarter

Hourly Weather History & Observations

Time (CDT) Temp. Windchill Dew Point Humidity Pressure Visibility Wind Dir Wind Speed Gust Speed Precip Events Conditions
12:00 AM -11.2 °F -30.1 °F -14.8 °F 84% 30.24 in 9.0 mi South 10.4 mph - N/A   Scattered Clouds
1:00 AM -11.2 °F -29.0 °F -16.6 °F 77% 30.24 in 9.0 mi South 9.2 mph - N/A   Clear
2:00 AM -13.0 °F -30.0 °F -18.4 °F 77% 30.24 in 9.0 mi South 8.1 mph - N/A   Clear
3:00 AM -14.8 °F -32.2 °F -20.2 °F 77% 30.25 in 9.0 mi South 8.1 mph - N/A   Clear
4:00 AM -14.8 °F -34.6 °F -20.2 °F 77% 30.25 in 9.0 mi South 10.4 mph - N/A   Clear
4:21 AM -14.8 °F -33.5 °F -20.2 °F 77% 30.25 in 5.0 mi South 9.2 mph - N/A   Haze
4:31 AM -16.6 °F -36.8 °F -20.2 °F 84% 30.25 in 9.0 mi South 10.4 mph - N/A   Clear
5:00 AM -14.8 °F -35.6 °F -20.2 °F 77% 30.24 in 9.0 mi South 11.5 mph - N/A   Clear
6:00 AM -14.8 °F -34.6 °F -20.2 °F 77% 30.25 in 9.0 mi South 10.4 mph - N/A   Clear
7:00 AM -13.0 °F -31.3 °F -18.4 °F 77% 30.25 in 9.0 mi SSE 9.2 mph - N/A   Clear
7:39 AM -11.2 °F -27.8 °F -16.6 °F 77% 30.25 in 9.0 mi SSE 8.1 mph - N/A   Mostly Cloudy
7:59 AM -11.2 °F -27.8 °F -16.6 °F 77% 30.25 in 9.0 mi SE 8.1 mph - N/A   Overcast
8:00 AM -11.2 °F -27.8 °F -16.6 °F 77% 30.25 in 9.0 mi SE 8.1 mph - N/A   Overcast
8:32 AM -9.4 °F -25.6 °F -13.0 °F 84% 30.25 in 9.0 mi SE 8.1 mph - N/A Snow Light Snow
8:44 AM -9.4 °F -25.6 °F -13.0 °F 84% 30.25 in 9.0 mi SE 8.1 mph - N/A   Overcast
8:58 AM -7.6 °F -24.6 °F -11.2 °F 84% 30.25 in 5.0 mi SSE 9.2 mph - N/A Snow Light Snow
9:00 AM -7.6 °F -25.7 °F -11.2 °F 84% 30.25 in 5.0 mi SSE 10.4 mph - N/A Snow Light Snow
9:12 AM -7.6 °F -24.6 °F -11.2 °F 84% 30.25 in 6.0 mi SSE 9.2 mph - N/A Snow Light Snow
9:25 AM -5.8 °F -23.4 °F -9.4 °F 84% 30.24 in 5.0 mi SSE 10.4 mph - N/A Snow Light Snow
9:54 AM -4.0 °F -21.2 °F -7.6 °F 85% 30.23 in 6.0 mi SSE 10.4 mph - N/A Snow Light Snow
10:00 AM -4.0 °F -22.1 °F -7.6 °F 85% 30.24 in 8.0 mi SSE 11.5 mph - N/A Snow Light Snow
11:00 AM -0.4 °F -18.4 °F -4.0 °F 85% 30.23 in 9.0 mi SE 12.7 mph - N/A Snow Light Snow
11:01 AM -0.4 °F -17.6 °F -4.0 °F 85% 30.23 in 9.0 mi SE 11.5 mph - N/A Snow Light Snow
11:29 AM 1.4 °F -16.9 °F -2.2 °F 85% 30.22 in 9.0 mi SE 13.8 mph - N/A Snow Light Snow
11:31 AM 1.4 °F -16.9 °F -2.2 °F 85% 30.22 in 9.0 mi SE 13.8 mph - N/A   Scattered Clouds
11:49 AM 1.4 °F -18.2 °F -2.2 °F 85% 30.22 in 9.0 mi SE 16.1 mph - N/A   Mostly Cloudy
12:00 PM 1.4 °F -18.2 °F -2.2 °F 85% 30.22 in 9.0 mi SSE 16.1 mph - N/A   Mostly Cloudy
12:37 PM 3.2 °F -16.5 °F -0.4 °F 85% 30.22 in 9.0 mi SE 17.3 mph - N/A   Overcast
1:00 PM 3.2 °F -16.5 °F 1.4 °F 92% 30.21 in 9.0 mi SE 17.3 mph - N/A   Overcast
1:01 PM 3.2 °F -15.9 °F 1.4 °F 92% 30.21 in 9.0 mi SE 16.1 mph - N/A Snow Light Snow
1:14 PM 3.2 °F -15.9 °F 1.4 °F 92% 30.21 in 9.0 mi SE 16.1 mph - N/A Snow Light Snow
1:25 PM 5.0 °F -13.6 °F 1.4 °F 85% 30.21 in 9.0 mi SE 16.1 mph - N/A   Partly Cloudy
1:41 PM 5.0 °F -14.2 °F 1.4 °F 85% 30.20 in 9.0 mi SE 17.3 mph - N/A   Mostly Cloudy
2:00 PM 5.0 °F -13.6 °F 3.2 °F 92% 30.20 in 9.0 mi SE 16.1 mph - N/A   Overcast
2:03 PM 5.0 °F -14.7 °F 3.2 °F 92% 30.20 in 9.0 mi SE 18.4 mph - N/A Snow Light Snow
3:00 PM 8.6 °F -9.5 °F 6.8 °F 92% 30.19 in 9.0 mi SE 17.3 mph - N/A Snow Light Snow
4:00 PM 10.4 °F -5.4 °F 8.6 °F 92% 30.18 in 9.0 mi SSE 13.8 mph - N/A Snow Light Snow
4:02 PM 10.4 °F -6.0 °F 8.6 °F 92% 30.18 in 9.0 mi SSE 15.0 mph - N/A Snow Light Snow
5:00 PM 10.4 °F -4.8 °F 8.6 °F 92% 30.17 in 9.0 mi SE 12.7 mph - N/A Snow Light Snow
6:00 PM 12.2 °F -3.7 °F 10.4 °F 92% 30.16 in 9.0 mi SSE 15.0 mph - N/A   Clear
6:42 PM 12.2 °F -3.1 °F 10.4 °F 92% 30.15 in 9.0 mi SSE 13.8 mph - N/A Snow Light Snow
6:52 PM 12.2 °F -3.7 °F 10.4 °F 92% 30.15 in 9.0 mi SSE 15.0 mph - N/A   Clear
7:06 PM 14.0 °F -2.0 °F 12.2 °F 93% 30.15 in 9.0 mi SSE 16.1 mph - N/A Snow Light Snow
7:07 PM 14.0 °F -2.0 °F 12.2 °F 93% 30.15 in 9.0 mi SSE 16.1 mph - N/A Snow Light Snow
7:44 PM 14.0 °F -4.3 °F 12.2 °F 93% 30.14 in 5.0 mi SSE 21.9 mph - N/A Snow Light Snow
8:00 PM 14.0 °F -4.3 °F 12.2 °F 93% 30.14 in 5.0 mi SSE 21.9 mph - N/A Snow Light Snow
8:36 PM 15.8 °F -0.6 °F 14.0 °F 93% 30.12 in 6.0 mi SSE 18.4 mph 25.3 mph N/A Snow Light Snow
8:40 PM 15.8 °F -1.9 °F 14.0 °F 93% 30.12 in 5.0 mi SSE 21.9 mph - N/A Snow Light Snow
8:46 PM 15.8 °F -2.3 °F 14.0 °F 93% 30.12 in 2.5 mi SSE 23.0 mph - N/A Snow Light Snow
8:48 PM 15.8 °F -2.3 °F 14.0 °F 93% 30.12 in 2.0 mi SSE 23.0 mph - N/A Snow Light Snow
8:57 PM 15.8 °F -1.9 °F 14.0 °F 93% 30.12 in 2.5 mi SSE 21.9 mph - N/A Snow Light Snow
9:00 PM 15.8 °F -1.5 °F 14.0 °F 93% 30.12 in 2.5 mi SSE 20.7 mph - N/A Snow Light Snow
9:09 PM 15.8 °F -1.5 °F 14.0 °F 93% 30.12 in 3.0 mi SSE 20.7 mph - N/A Snow Light Snow
9:49 PM 15.8 °F -1.1 °F 15.8 °F 100% 30.11 in 2.5 mi SSE 19.6 mph - N/A Snow Light Snow
9:50 PM 15.8 °F -1.1 °F 14.0 °F 93% 30.11 in 2.0 mi SSE 19.6 mph - N/A Snow Light Snow
9:52 PM 15.8 °F -1.1 °F 15.8 °F 100% 30.10 in 1.2 mi SSE 19.6 mph - N/A Snow Light Snow
9:58 PM 15.8 °F -1.1 °F 15.8 °F 100% 30.10 in 0.6 mi SSE 19.6 mph - N/A Snow Light Snow
10:00 PM 15.8 °F -1.5 °F 15.8 °F 100% 30.10 in 0.6 mi SSE 20.7 mph - N/A Snow Light Snow
10:09 PM 15.8 °F -1.1 °F 15.8 °F 100% 30.10 in 1.8 mi SSE 19.6 mph - N/A Snow Light Snow
10:19 PM 15.8 °F -0.6 °F 15.8 °F 100% 30.10 in 2.5 mi SSE 18.4 mph - N/A Snow Light Snow
10:21 PM 15.8 °F -0.6 °F 15.8 °F 100% 30.10 in 2.5 mi SSE 18.4 mph - N/A Snow Light Snow
10:45 PM 17.6 °F 0.5 °F 15.8 °F 93% 30.09 in 2.2 mi South 21.9 mph - N/A Snow Light Snow
11:00 PM 17.6 °F 1.3 °F 15.8 °F 93% 30.09 in 2.2 mi South 19.6 mph - N/A Snow Light Snow
11:02 PM 17.6 °F 1.7 °F 15.8 °F 93% 30.09 in 2.5 mi South 18.4 mph - N/A Snow Light Snow
11:09 PM 17.6 °F 1.7 °F 15.8 °F 93% 30.10 in 3.0 mi South 18.4 mph - N/A Snow Light Snow
11:10 PM 17.6 °F 1.7 °F 15.8 °F 93% 30.10 in 3.0 mi South 18.4 mph - N/A Snow Light Snow
11:17 PM 17.6 °F 1.3 °F 15.8 °F 93% 30.10 in 4.0 mi South 19.6 mph - N/A   Overcast
11:18 PM 17.6 °F 1.3 °F 15.8 °F 93% 30.09 in 4.0 mi South 19.6 mph - N/A Snow Light Snow
11:28 PM 17.6 °F 0.9 °F 15.8 °F 93% 30.09 in 2.5 mi South 20.7 mph - N/A Snow Light Snow
11:33 PM 17.6 °F 0.5 °F 15.8 °F 93% 30.09 in 2.0 mi South 21.9 mph - N/A Snow Light Snow
11:43 PM 17.6 °F 0.1 °F 15.8 °F 93% 30.09 in 1.5 mi South 23.0 mph - N/A Snow Light Snow
11:53 PM 17.6 °F 1.7 °F 15.8 °F 93% 30.09 in 2.5 mi South 18.4 mph 25.3 mph N/A Snow Light Snow
11:54 PM 17.6 °F 1.7 °F 15.8 °F 93% 30.09 in 3.0 mi South 18.4 mph 25.3 mph N/A Snow Light Snow